| time (UTC) | temp F | wind direction | speed MPH | gust MPH | rain 1hr in | rain 24hr in | rain mn in | humidity % | barometer mb |
| 20260904051537 | 65 | 34 | 1.0 | 4.0 | 0.01 | 0.05 | 0.01 | 97 | 1010.9 |
| 20260904050034 | 64 | 161 | 1.0 | 7.0 | 0.01 | 0.04 | 0.00 | 96 | 1010.5 |
| 20260904044537 | 65 | 306 | 1.0 | 9.0 | 0.04 | 0.04 | 0.04 | 94 | 1011.8 |
| 20260904043040 | 65 | 32 | 0.0 | 4.0 | 0.04 | 0.04 | 0.04 | 94 | 1011.8 |
| 20260904041532 | 66 | 312 | 1.0 | 5.0 | 0.04 | 0.04 | 0.04 | 93 | 1011.4 |
| 20260904040032 | 67 | 5 | 1.0 | 5.0 | 0.03 | 0.03 | 0.03 | 92 | 1011.0 |
| 20260904034531 | 68 | 331 | 2.0 | 8.0 | 0.00 | 0.00 | 0.00 | 92 | 1011.6 |
| 20260904033033 | 69 | 316 | 0.0 | 1.0 | 0.00 | 0.00 | 0.00 | 91 | 1010.6 |
| 20260904031529 | 69 | 316 | 0.0 | 0.0 | 0.00 | 0.00 | 0.00 | 90 | 1010.5 |
| 20260904030035 | 69 | 316 | 0.0 | 1.0 | 0.00 | 0.00 | 0.00 | 88 | 1010.5 |
| 20260904024527 | 69 | 316 | 0.0 | 1.0 | 0.00 | 0.00 | 0.00 | 88 | 1010.2 |
| 20260904023026 | 69 | 316 | 0.0 | 1.0 | 0.00 | 0.00 | 0.00 | 88 | 1010.3 |
| 20260904021530 | 69 | 316 | 0.0 | 2.0 | 0.00 | 0.00 | 0.00 | 88 | 1010.0 |
| 20260904020025 | 69 | 314 | 0.0 | 4.0 | 0.00 | 0.00 | 0.00 | 88 | 1010.0 |
| 20260904014525 | 69 | 30 | 0.0 | 2.0 | 0.00 | 0.00 | 0.00 | 88 | 1010.2 |
| 20260904013024 | 69 | 30 | 0.0 | 4.0 | 0.00 | 0.00 | 0.00 | 89 | 1010.0 |
| 20260904011523 | 69 | 79 | 0.0 | 3.0 | 0.00 | 0.00 | 0.00 | 88 | 1010.2 |
| 20260904010023 | 69 | 81 | 1.0 | 6.0 | 0.00 | 0.00 | 0.00 | 87 | 1010.2 |
| 20260904004526 | 69 | 248 | 0.0 | 7.0 | 0.00 | 0.00 | 0.00 | 86 | 1010.1 |
| 20260904003023 | 69 | 51 | 0.0 | 7.0 | 0.00 | 0.00 | 0.00 | 85 | 1010.4 |
| 20260904001521 | 69 | 59 | 0.0 | 4.0 | 0.00 | 0.00 | 0.00 | 85 | 1010.3 |
| 20260904000021 | 69 | 355 | 1.0 | 7.0 | 0.00 | 0.00 | 0.00 | 84 | 1010.3 |
| 20260903234520 | 70 | 93 | 1.0 | 7.0 | 0.00 | 0.00 | 0.00 | 82 | 1010.2 |
| 20260903233032 | 70 | 5 | 2.0 | 8.0 | 0.00 | 0.00 | 0.00 | 79 | 1010.2 |
| 20260903231531 | 71 | 243 | 1.0 | 6.0 | 0.00 | 0.00 | 0.00 | 77 | 1009.9 |
| 20260903230017 | 72 | 90 | 0.0 | 4.0 | 0.00 | 0.00 | 0.00 | 75 | 1010.3 |
| 20260903224517 | 73 | 20 | 1.0 | 9.0 | 0.00 | 0.00 | 0.00 | 73 | 1010.6 |
| 20260903223016 | 73 | 53 | 1.0 | 6.0 | 0.00 | 0.00 | 0.00 | 71 | 1010.4 |
| 20260903221516 | 73 | 348 | 1.0 | 8.0 | 0.00 | 0.00 | 0.00 | 73 | 1010.5 |
| 20260903220015 | 74 | 54 | 1.0 | 9.0 | 0.00 | 0.00 | 0.00 | 70 | 1010.5 |
| 20260903214515 | 74 | 71 | 1.0 | 9.0 | 0.00 | 0.00 | 0.00 | 71 | 1010.3 |
| 20260903213014 | 74 | 199 | 1.0 | 9.0 | 0.00 | 0.00 | 0.00 | 71 | 1010.3 |
| 20260903211513 | 74 | 38 | 1.0 | 6.0 | 0.00 | 0.00 | 0.00 | 71 | 1010.4 |
| 20260903210013 | 74 | 90 | 1.0 | 3.0 | 0.00 | 0.00 | 0.00 | 74 | 1010.5 |
| 20260903204512 | 73 | 86 | 0.0 | 3.0 | 0.00 | 0.00 | 0.00 | 76 | 1010.5 |
| 20260903203013 | 74 | 53 | 0.0 | 5.0 | 0.00 | 0.00 | 0.00 | 75 | 1010.6 |
| 20260903201511 | 74 | 38 | 0.0 | 5.0 | 0.00 | 0.00 | 0.00 | 75 | 1010.6 |
| 20260903200011 | 75 | 323 | 1.0 | 5.0 | 0.00 | 0.00 | 0.00 | 74 | 1010.6 |
| 20260903194510 | 75 | 30 | 2.0 | 9.0 | 0.00 | 0.00 | 0.00 | 72 | 1010.5 |
| 20260903193012 | 75 | 195 | 2.0 | 7.0 | 0.00 | 0.00 | 0.00 | 73 | 1010.6 |
| 20260903191522 | 77 | 22 | 2.0 | 9.0 | 0.00 | 0.00 | 0.00 | 70 | 1010.7 |
| 20260903190010 | 77 | 67 | 1.0 | 7.0 | 0.00 | 0.00 | 0.00 | 69 | 1010.6 |
| 20260903184506 | 77 | 5 | 1.0 | 6.0 | 0.00 | 0.00 | 0.00 | 69 | 1010.8 |
| 20260903183005 | 77 | 86 | 1.0 | 6.0 | 0.00 | 0.00 | 0.00 | 69 | 1010.9 |
| 20260903181503 | 77 | 334 | 2.0 | 11.0 | 0.00 | 0.00 | 0.00 | 71 | 1011.0 |
| 20260903180002 | 77 | 331 | 3.0 | 10.0 | 0.00 | 0.00 | 0.00 | 70 | 1011.2 |
| 20260903174501 | 76 | 44 | 1.0 | 8.0 | 0.00 | 0.00 | 0.00 | 71 | 1011.3 |
| 20260903173001 | 77 | 57 | 2.0 | 8.0 | 0.00 | 0.00 | 0.00 | 70 | 1011.3 |
| 20260903171612 | 77 | 5 | 3.0 | 8.0 | 0.00 | 0.00 | 0.00 | 70 | 1011.4 |
| 20260903170100 | 77 | 27 | 2.0 | 6.0 | 0.00 | 0.00 | 0.00 | 70 | 1011.6 |
| 20260903164557 | 77 | 80 | 0.0 | 6.0 | 0.00 | 0.00 | 0.00 | 67 | 1011.9 |
| 20260903163055 | 77 | 106 | 1.0 | 5.0 | 0.00 | 0.00 | 0.00 | 68 | 1012.0 |
| 20260903161555 | 75 | 69 | 1.0 | 5.0 | 0.00 | 0.00 | 0.00 | 71 | 1012.0 |
| 20260903160051 | 75 | 44 | 1.0 | 5.0 | 0.00 | 0.00 | 0.00 | 71 | 1012.1 |
| 20260903154546 | 73 | 49 | 0.0 | 5.0 | 0.00 | 0.00 | 0.00 | 75 | 1012.1 |
| 20260903153044 | 73 | 325 | 0.0 | 4.0 | 0.00 | 0.00 | 0.00 | 76 | 1012.3 |
| 20260903151557 | 72 | 44 | 0.0 | 5.0 | 0.00 | 0.00 | 0.00 | 79 | 1012.2 |
| 20260903150047 | 72 | 23 | 1.0 | 4.0 | 0.00 | 0.00 | 0.00 | 82 | 1012.3 |
| 20260903144539 | 71 | 16 | 0.0 | 4.0 | 0.00 | 0.00 | 0.00 | 80 | 1012.3 |
| 20260903143039 | 71 | 27 | 1.0 | 5.0 | 0.00 | 0.00 | 0.00 | 78 | 1012.4 |
| 20260903141539 | 70 | 70 | 0.0 | 3.0 | 0.00 | 0.00 | 0.00 | 79 | 1012.4 |
| 20260903140030 | 68 | 70 | 0.0 | 4.0 | 0.00 | 0.00 | 0.00 | 83 | 1012.5 |
| 20260903134526 | 66 | 82 | 0.0 | 2.0 | 0.00 | 0.00 | 0.00 | 87 | 1012.6 |
| 20260903133022 | 64 | 82 | 0.0 | 1.0 | 0.00 | 0.00 | 0.00 | 94 | 1012.8 |
| 20260903131519 | 62 | 82 | 0.0 | 2.0 | 0.00 | 0.00 | 0.00 | 97 | 1012.6 |
| 20260903130023 | 60 | 82 | 0.0 | 1.0 | 0.00 | 0.00 | 0.00 | 98 | 1012.7 |
| 20260903124516 | 59 | 82 | 0.0 | 0.0 | 0.00 | 0.00 | 0.00 | 98 | 1012.5 |
| 20260903123016 | 58 | 82 | 0.0 | 0.0 | 0.00 | 0.00 | 0.00 | 98 | 1012.5 |
| 20260903121517 | 57 | 82 | 0.0 | 0.0 | 0.00 | 0.00 | 0.00 | 97 | 1012.6 |
| 20260903120011 | 57 | 82 | 0.0 | 0.0 | 0.00 | 0.00 | 0.00 | 96 | 1012.5 |
| 20260903114508 | 57 | 82 | 0.0 | 0.0 | 0.00 | 0.00 | 0.00 | 96 | 1012.4 |
| 20260903113038 | 57 | 82 | 0.0 | 0.0 | 0.00 | 0.00 | 0.00 | 96 | 1012.1 |
| 20260903111533 | 57 | 82 | 0.0 | 0.0 | 0.00 | 0.00 | 0.00 | 96 | 1011.9 |
| 20260903110034 | 57 | 82 | 0.0 | 0.0 | 0.00 | 0.00 | 0.00 | 96 | 1012.0 |
| 20260903104533 | 57 | 82 | 0.0 | 0.0 | 0.00 | 0.00 | 0.00 | 96 | 1012.1 |
| 20260903103031 | 57 | 82 | 0.0 | 0.0 | 0.00 | 0.00 | 0.00 | 96 | 1012.1 |
| 20260903101541 | 58 | 82 | 0.0 | 0.0 | 0.00 | 0.00 | 0.00 | 96 | 1012.1 |
| 20260903100033 | 58 | 82 | 0.0 | 0.0 | 0.00 | 0.00 | 0.00 | 95 | 1011.8 |
| 20260903094527 | 58 | 82 | 0.0 | 0.0 | 0.00 | 0.00 | 0.00 | 95 | 1011.8 |
| 20260903093037 | 58 | 82 | 0.0 | 0.0 | 0.00 | 0.00 | 0.00 | 95 | 1011.7 |
| 20260903091526 | 58 | 82 | 0.0 | 0.0 | 0.00 | 0.00 | 0.00 | 95 | 1011.5 |
| 20260903090024 | 59 | 82 | 0.0 | 0.0 | 0.00 | 0.00 | 0.00 | 95 | 1011.5 |
| 20260903084530 | 59 | 82 | 0.0 | 0.0 | 0.00 | 0.00 | 0.00 | 95 | 1011.5 |
| 20260903083025 | 59 | 82 | 0.0 | 0.0 | 0.00 | 0.00 | 0.00 | 94 | 1011.6 |
| 20260903081520 | 60 | 82 | 0.0 | 0.0 | 0.00 | 0.00 | 0.00 | 95 | 1011.7 |
| 20260903080036 | 60 | 82 | 0.0 | 0.0 | 0.00 | 0.00 | 0.00 | 95 | 1011.7 |
| 20260903074517 | 60 | 82 | 0.0 | 0.0 | 0.00 | 0.00 | 0.00 | 95 | 1011.7 |
| 20260903073022 | 60 | 82 | 0.0 | 0.0 | 0.00 | 0.00 | 0.00 | 95 | 1011.6 |
| 20260903071516 | 60 | 82 | 0.0 | 0.0 | 0.00 | 0.00 | 0.00 | 94 | 1011.7 |
| 20260903070017 | 60 | 82 | 0.0 | 0.0 | 0.00 | 0.00 | 0.00 | 94 | 1012.1 |
| 20260903064512 | 60 | 82 | 0.0 | 0.0 | 0.00 | 0.00 | 0.00 | 93 | 1012.1 |
| 20260903063011 | 61 | 82 | 0.0 | 0.0 | 0.00 | 0.00 | 0.00 | 93 | 1012.2 |
| 20260903061514 | 61 | 82 | 0.0 | 0.0 | 0.00 | 0.00 | 0.00 | 92 | 1012.1 |
| 20260903060009 | 61 | 82 | 0.0 | 0.0 | 0.00 | 0.00 | 0.00 | 92 | 1012.3 |
| 20260903054510 | 61 | 82 | 0.0 | 0.0 | 0.00 | 0.00 | 0.00 | 91 | 1011.9 |
| 20260903053005 | 62 | 82 | 0.0 | 0.0 | 0.00 | 0.00 | 0.00 | 91 | 1012.0 |